Regional Weather Roundup
Issued by NWS

Home | Current Version | Previous Version | Graphics & Text | Print | Product List | Glossary On
Versions: 1 2 3 4 5 6 7 8 9 10 11 12 13 14 15 16 17 18 19 20 21 22 23 24 25 26 27 28 29 30 31 32 33 34 35 36 37 38 39 40 41 42 43 44 45 46 47 48 49 50
115
ASUS43 KTOP 211259
RWRKS

WEATHER ROUNDUP FOR KANSAS
NATIONAL WEATHER SERVICE GOODLAND KS
700 AM CST WED FEB 21 2018

NOTE:  "FAIR" INDICATES FEW OR NO CLOUDS BELOW 12,000 FEET WITH NO
SIGNIFICANT WEATHER AND/OR OBSTRUCTIONS TO VISIBILITY.

KSZ001>006-013>018-027>032-041>047-211400-
NORTHWEST KANSAS

CITY           SKY/WX    TMP DP  RH WIND       PRES   REMARKS
GOODLAND       CLEAR      0  -5  79 SW5       30.33R
HAYS           CLOUDY     3  -3  76 CALM      30.52R
HILL CITY      CLOUDY     3  -1  83 N3        30.50R
RUSSELL        CLOUDY     6   2  83 CALM      30.51R
$$

KSZ061>065-074>080-084>089-211400-
SOUTHWEST KANSAS

CITY           SKY/WX    TMP DP  RH WIND       PRES   REMARKS
DODGE CITY     CLOUDY     4  -2  76 N7        30.45R
GARDEN CITY    CLOUDY     7   0  73 E6        30.43R
GREAT BEND     CLOUDY     8   2  76 N7        30.53R
LIBERAL        CLOUDY    13   2  61 NE10      30.43R WCI   0
$$

KSZ066>073-081>083-090>101-211400-
SOUTHEAST KANSAS

CITY           SKY/WX    TMP DP  RH WIND       PRES   REMARKS
CHANUTE        CLOUDY    19  14  81 N12G23    30.48R WCI   7
COFFEYVILLE    CLOUDY    22  18  85 N15G24    30.46R WCI   9
HUTCHINSON     CLOUDY    11   6  81 N9        30.52R
MEDICINE LODGE   N/A     16   7  67 N17G26    30.48R WCI   0
NEWTON         CLOUDY    11   7  84 N15       30.50R WCI  -5
PARSONS        CLOUDY    21  17  84 N13G22    30.47R WCI   9
WICHITA INTL   CLOUDY    16   9  74 N15       30.48F WCI   1
WICHITA JABRA  CLOUDY    14  10  84 N13       30.48S WCI   0
WICHITA MCCONL CLOUDY   N/A N/A N/A N13       30.48S
WINFIELD       PTCLDY    17  14  88 N14       30.49R WCI   3
$$

KSZ007>012-019>026-033>040-048>060-102>105-211400-
NORTHEAST KANSAS

CITY           SKY/WX    TMP DP  RH WIND       PRES   REMARKS
CONCORDIA      CLOUDY     8   2  76 N10       30.54R WCI  -6
EMPORIA        CLOUDY    13   8  81 N14       30.51R WCI  -2
LAWRENCE       MOCLDY    15  10  80 N8        30.56R
MANHATTAN      CLOUDY    14   5  67 NE10      30.56R WCI   1
OLATHE IND     PTCLDY    15  12  88 N15       30.52S WCI   0
OLATHE EXE     CLOUDY    15  12  88 N15       30.51S WCI   0
SALINA         CLOUDY    13   5  70 N10       30.55R WCI   0
TOPEKA BILLARD PTCLDY    14  10  84 N10       30.57R WCI   1
TOPEKA FORBES  CLOUDY    14   9  80 N12       30.54R WCI   0
$$




USA.gov is the U.S. government's official web portal to all federal, state and local government web resources and services.